EW4351 Weather Reports


time (UTC)temp
C
wind
direction
speed
KPH
gust
KPH
rain 1hr
cm
rain 24hr
cm
rain mn
cm
humidity
%
barometer
mb
20260505151604 16 190 1.6 16.1 0.00 0.05 0.03 73 1009.4
20260505124249 13 135 0.0 0.0 0.00 0.03 0.00 78 1009.6
20260505122732 13 158 0.0 0.0 0.00 0.03 0.00 80 1009.8
20260505121252 12 154 0.0 0.0 0.00 0.03 0.00 83 1009.9
20260505115731 11 48 0.0 0.0 0.00 0.03 0.00 84 1009.7
20260505114242 10 48 0.0 0.0 0.00 0.03 0.00 85 1009.8
20260505112805 10 48 0.0 0.0 0.00 0.03 0.00 86 1009.7
20260505111220 9 48 0.0 0.0 0.00 0.03 0.00 87 1009.6
20260505101052 7 37 0.0 0.0 0.00 0.03 0.00 89 1009.6
20260505095509 7 37 0.0 0.0 0.00 0.03 0.00 88 1009.5
20260505093925 7 37 0.0 0.0 0.00 0.03 0.00 89 1009.3
20260505085253 8 190 0.0 0.0 0.00 0.03 0.00 86 1009.2
20260505082120 8 190 0.0 0.0 0.00 0.03 0.00 85 1009.1
20260505080612 8 190 0.0 0.0 0.00 0.03 0.00 84 1009.2
20260505075106 9 190 0.0 0.0 0.00 0.03 0.00 83 1009.1
20260505072008 9 190 0.0 0.0 0.00 0.03 0.00 84 1009.1
20260505070500 9 206 0.0 0.0 0.00 0.03 0.00 84 1009.0
20260505064951 10 206 0.0 0.0 0.00 0.03 0.00 83 1009.1
20260505054552 8 184 0.0 0.0 0.00 0.03 0.00 88 1008.9
20260505053052 7 156 0.0 0.0 0.00 0.03 0.00 89 1008.8
20260505051602 7 156 0.0 0.0 0.00 0.03 0.00 89 1008.5
20260505041253 7 156 0.0 0.0 0.00 0.03 0.00 89 1008.6
20260505035828 7 156 0.0 0.0 0.00 0.03 0.03 89 1008.6
20260505034255 7 156 0.0 0.0 0.00 0.03 0.03 89 1008.6
20260505032817 7 156 0.0 0.0 0.00 0.03 0.03 88 1008.6
20260505031338 7 156 0.0 0.0 0.00 0.03 0.03 88 1008.4
20260505021003 7 156 0.0 0.0 0.00 0.03 0.03 88 1008.5
20260505015452 7 156 0.0 0.0 0.00 0.03 0.03 87 1008.5
20260505013937 7 156 0.0 0.0 0.00 0.03 0.03 87 1008.5
20260505010908 8 156 0.0 0.0 0.00 0.03 0.03 86 1008.2
20260505005439 8 156 0.0 0.0 0.00 0.03 0.03 85 1008.1
20260505003929 10 156 0.0 0.0 0.00 0.03 0.03 83 1008.0
20260505002457 10 156 0.0 0.0 0.00 0.03 0.03 81 1007.8
20260505001036 11 156 0.0 0.0 0.00 0.03 0.03 81 1007.5
20260504235508 12 156 0.0 0.0 0.00 0.03 0.03 79 1007.4
20260504234038 12 156 0.0 0.0 0.00 0.03 0.03 77 1006.8
20260504232454 13 156 0.0 0.0 0.00 0.03 0.03 77 1006.5
20260504230934 13 156 0.0 0.0 0.00 0.03 0.03 76 1006.4
20260504225504 14 156 0.0 0.0 0.00 0.03 0.03 70 1006.3
20260504220756 16 188 0.0 0.0 0.00 0.03 0.03 63 1006.1
20260504215253 16 198 0.0 0.0 0.00 0.03 0.03 64 1005.9
20260504213821 16 180 0.0 0.0 0.00 0.03 0.03 65 1005.8
20260504212337 16 181 0.0 0.0 0.00 0.03 0.03 64 1005.7
20260504210822 16 186 0.0 0.0 0.00 0.03 0.03 65 1005.6
20260504203706 16 208 0.0 0.0 0.00 0.03 0.03 65 1005.5
20260504202158 16 182 0.0 6.4 0.00 0.03 0.03 66 1005.6
20260504200714 16 189 0.0 0.0 0.00 0.03 0.03 68 1005.6
20260504195228 15 172 0.0 0.0 0.00 0.03 0.03 69 1005.5
20260504193640 15 168 0.0 0.0 0.00 0.03 0.03 74 1005.6
20260504192057 13 197 0.0 0.0 0.00 0.03 0.03 76 1005.7
20260504184838 11 194 0.0 0.0 0.00 0.10 0.03 83 1006.5
20260504183303 11 205 0.0 0.0 0.00 0.13 0.03 81 1006.8
20260504181749 12 215 0.0 0.0 0.00 0.13 0.00 76 1006.9
20260504180202 13 195 0.0 0.0 0.00 0.15 0.00 68 1006.5
20260504171350 13 208 0.0 1.6 0.00 0.25 0.00 66 1006.0